Tracking 27124 objects as of 31-Mar-2023
HD Live streaming from Space Station
objects crossing your sky now

SL-8 DEB

Track SL-8 DEB now!
10-day predictions


NORAD ID: 21861
Int'l Code: 1991-009CA
Perigee: 1,471.6 km
Apogee: 1,685.4 km
Inclination: 74.0 °
Period: 117.6 minutes
Semi major axis: 7949 km
RCS: 0.0407 m2 (small)
Launch date: February 12, 1991
Source: Commonwealth of Independent States (former USSR) (CIS)
Launch site: PLESETSK MISSILE AND SPACE COMPLEX (PKMTR)

Note: This is SATELLITE DEBRIS
Your satellite tracking list
Your tracking list is empty




NASA's NSSDC Master Catalog

Two Line Element Set (TLE):
1 21861U 91009CA  23090.47319117  .00000137  00000-0  13394-2 0  9997
2 21861  74.0213  88.3240 0134517  29.6072 127.9318 12.24876314433244
Source of the keplerian elements: AFSPC